Meknes, Morocco

9:03 AM WEST on August 22, 2017 (GMT +0100)
Meknes

Weather History for GMFM - September, 2013

Change the Weather History Date:

Tuesday, September 3, 2013

  Actual Average (GMFF) Record (GMFF)
Temperature  
Mean Temperature 82 °F -  
Max Temperature 97 °F 84 °F 108 °F (2016)
Min Temperature 66 °F 60 °F 55 °F (2003)
Cooling Degree Days 16    
Growing Degree Days 32 (Base 50)    
Moisture  
Dew Point 47 °F    
Average Humidity 31    
Maximum Humidity 64    
Minimum Humidity 7    
Precipitation  
Precipitation 0.00 in 0.02 in - ()
Sea Level Pressure  
Sea Level Pressure 30.02 in    
Wind  
Wind Speed 8 mph ()    
Max Wind Speed 14 mph    
Max Gust Speed -    
Visibility 6.0 miles    
Events      
Averages and records for this station are not official NWS values.
T = Trace of Precipitation, MM = Missing Value Source: Averaged Metar Reports

Daily Weather History Graph

Daily Weather History Graph

Search for Another Location

Airport or City:

Trip Planner

Search our weather history database for the weather conditions in past years. The results will help you decide how hot, cold, wet, or windy it might be!

Date:

Astronomy

Sep. 03, 2013 Rise Set
Actual Time 6:57 AM WEST 7:45 PM WEST
Civil Twilight 6:31 AM WEST 8:10 PM WEST
Nautical Twilight 6:01 AM WEST 8:40 PM WEST
Astronomical Twilight 5:31 AM WEST 9:11 PM WEST
Moon 5:00 AM WEST (9/3) 6:23 PM WEST (9/3)
Length of Visible Light 13h 38m
Length of Day
12h 47m
Waning Crescent, 4% of the Moon is Illuminated
Sep 3
Waning Crescent
Sep 5
New
Sep 12
First Quarter
Sep 19
Full
Sep 27
Last Quarter

Hourly Weather History & Observations

Time (WEST) Temp. Dew Point Humidity Pressure Visibility Wind Dir Wind Speed Gust Speed Precip Events Conditions
12:00 AM 75.2 °F 48.2 °F 38% 30.06 in - East 11.5 mph - N/A   Clear
1:00 AM 73.4 °F 48.2 °F 41% 30.06 in - East 13.8 mph - N/A   Clear
2:00 AM 71.6 °F 48.2 °F 43% 30.04 in - East 11.5 mph - N/A   Clear
3:00 AM 71.6 °F 50.0 °F 46% 30.04 in - East 11.5 mph - N/A   Clear
4:00 AM 69 °F 50 °F 41% 29.97 in 6 mi East 9.2 mph - -  
4:00 AM 69.8 °F 50.0 °F 49% 30.04 in - East 9.2 mph - N/A   Clear
5:00 AM 69.8 °F 50.0 °F 49% 30.04 in - East 11.5 mph - N/A   Clear
6:00 AM 68.0 °F 51.8 °F 56% 30.04 in - East 12.7 mph - N/A   Clear
7:00 AM 66.2 °F 53.6 °F 64% 30.04 in - ESE 9.2 mph - N/A   Clear
8:00 AM 68.0 °F 53.6 °F 60% 30.06 in - East 11.5 mph - N/A   Clear
9:00 AM 73.4 °F 53.6 °F 50% 30.06 in - East 11.5 mph - N/A   Clear
10:00 AM 78 °F 54 °F 33% 29.98 in 6 mi East 11.5 mph - -  
10:00 AM 78.8 °F 53.6 °F 42% 30.06 in - East 11.5 mph - N/A   Clear
11:00 AM 84.2 °F 51.8 °F 33% 30.09 in - ENE 10.4 mph - N/A   Clear
12:00 PM 87.8 °F 50.0 °F 27% 30.06 in - ENE 8.1 mph - N/A   Clear
1:00 PM 90 °F 47 °F 14% 29.92 in 6 mi ENE 8.1 mph - -  
1:00 PM 91.4 °F 46.4 °F 21% 30.06 in - ENE 8.1 mph - N/A   Clear
2:00 PM 93.2 °F 46.4 °F 20% 30.04 in - NE 2.3 mph - N/A   Clear
3:00 PM 95.0 °F 42.8 °F 16% 30.04 in - WNW 4.6 mph - N/A   Clear
4:00 PM 96 °F 39 °F 7% 29.86 in 6 mi NE 2.3 mph - -  
4:00 PM 96.8 °F 39.2 °F 14% 30.01 in - NE 2.3 mph - N/A   Clear
5:00 PM 96.8 °F 41.0 °F 15% 30.01 in - NW 2.3 mph - N/A   Clear
6:00 PM 95.0 °F 39.2 °F 14% 30.01 in - North 5.8 mph - N/A   Clear
7:00 PM 94 °F 36 °F 7% 29.86 in 6 mi NW 4.6 mph - -  
7:00 PM 95.0 °F 42.8 °F 16% 30.04 in - WNW 4.6 mph - N/A   Unknown
8:00 PM 89.6 °F 44.6 °F 21% 30.01 in - NW 4.6 mph - N/A   Clear
9:00 PM 87.8 °F 44.6 °F 22% 30.04 in - NE 4.6 mph - N/A   Clear
10:00 PM 84 °F 45 °F 16% 29.94 in 6 mi NW 4.6 mph - -  
10:00 PM 84.2 °F 44.6 °F 25% 30.06 in - NW 4.6 mph - N/A   Clear
11:00 PM 80.6 °F 46.4 °F 30% 30.06 in - WNW 3.5 mph - N/A   Clear